{"data":{"norad_id":65682,"intl_designator":"2025-212G","name":"STARLINK-35235","alt_names":[],"object_type":"PAYLOAD","status":"ACTIVE","operator":null,"country":"US","launch_date":"2025-09-21","launch_site_code":"AFETR","launch_vehicle":null,"mission":null,"orbit_class":"UNKNOWN","rcs_meters":null,"size_class":null,"mass_kg":null,"dimensions":null,"purposes":["comms"],"wikipedia_slug":null,"has_3d_model":false,"image_url":null,"decayed_at":null,"tle_current":{"epoch":"2026-05-24T23:51:58.893696Z","epoch_age_seconds":74963,"freshness":"FRESH","line1":"1 65682U 25212G   26144.99443164  .00037254  00000+0  11079-2 0  9996","line2":"2 65682  53.1595 350.0057 0000365 202.6551 157.4435 15.34411241 38895","mean_motion":15.34411241,"eccentricity":3.65e-5,"inclination_deg":53.1595,"raan_deg":350.0057,"arg_perigee_deg":202.6551,"mean_anomaly_deg":157.4435,"bstar":0.0011079,"rev_number":3889,"period_min":93.847070558577,"perigee_km":462.42014034086,"apogee_km":462.91951923943,"semimajor_km":6840.8068297901,"source":"CELESTRAK","updated_at":"2026-05-25T13:38:20.894668Z"}}}